Opa-locka, FL

1:09 AM EST on January 17, 2017 (GMT -0500)
Opa Locka

Weather History for KOPF - August, 2013

Change the Weather History Date:

Thursday, August 8, 2013

  Actual Average Record
Temperature  
Mean Temperature 86 °F -  
Max Temperature 93 °F 90 °F 95 °F (1956)
Min Temperature 82 °F 75 °F 66 °F (1985)
Cooling Degree Days 22    
Growing Degree Days 36 (Base 50)    
Moisture  
Dew Point 73 °F    
Average Humidity 65    
Maximum Humidity 74    
Minimum Humidity 50    
Precipitation  
Precipitation 0.00 in - - ()
Sea Level Pressure  
Sea Level Pressure 29.98 in    
Wind  
Wind Speed 11 mph (ESE)    
Max Wind Speed 18 mph    
Max Gust Speed 26 mph    
Visibility 10 miles    
Events Thunderstorm    
Averages and records for this station are not official NWS values.
T = Trace of Precipitation, MM = Missing Value Source: NWS Daily Summary

Daily Weather History Graph

Daily Weather History Graph

Search for Another Location

Airport or City:

Trip Planner

Search our weather history database for the weather conditions in past years. The results will help you decide how hot, cold, wet, or windy it might be!

Date:

Astronomy

Aug. 08, 2013 Rise Set
Actual Time 6:50 AM EDT 8:02 PM EDT
Civil Twilight 6:26 AM EDT 8:26 PM EDT
Nautical Twilight 5:57 AM EDT 8:55 PM EDT
Astronomical Twilight 5:27 AM EDT 9:25 PM EDT
Moon 8:19 AM EDT (8/8) 8:59 PM EDT (8/8)
Length of Visible Light 14h 00m
Length of Day
13h 11m
Waxing Crescent, 3% of the Moon is Illuminated
Aug 8
Waxing Crescent
Aug 14
First Quarter
Aug 20
Full
Aug 28
Last Quarter
Sep 5
New

Hourly Weather History & Observations

Time (EDT) Temp. Heat Index Dew Point Humidity Pressure Visibility Wind Dir Wind Speed Gust Speed Precip Events Conditions
12:53 AM 82.9 °F 88.8 °F 73.0 °F 72% 29.98 in 10.0 mi ESE 8.1 mph - N/A   Clear
1:53 AM 84.0 °F 90.2 °F 73.0 °F 69% 29.96 in 10.0 mi ESE 8.1 mph - N/A   Clear
2:53 AM 84.0 °F 91.2 °F 73.9 °F 72% 29.95 in 10.0 mi ESE 11.5 mph - N/A   Partly Cloudy
3:53 AM 82.9 °F 89.4 °F 73.9 °F 74% 29.93 in 10.0 mi ESE 6.9 mph - N/A   Partly Cloudy
4:53 AM 82.9 °F 89.4 °F 73.9 °F 74% 29.94 in 10.0 mi ESE 8.1 mph - N/A   Clear
5:53 AM 82.9 °F 88.8 °F 73.0 °F 72% 29.95 in 10.0 mi ESE 9.2 mph - N/A   Clear
6:53 AM 82.9 °F 88.8 °F 73.0 °F 72% 29.96 in 10.0 mi ESE 6.9 mph - N/A   Clear
7:53 AM 84.0 °F 90.2 °F 73.0 °F 69% 29.96 in 10.0 mi ESE 9.2 mph - N/A   Partly Cloudy
8:53 AM 87.1 °F 96.3 °F 75.0 °F 67% 29.97 in 10.0 mi ESE 13.8 mph - N/A   Partly Cloudy
9:53 AM 84.9 °F 91.4 °F 73.0 °F 67% 29.98 in 10.0 mi SE 18.4 mph 23.0 mph 0.00 in   Mostly Cloudy
10:53 AM 89.1 °F 98.0 °F 73.9 °F 61% 29.99 in 10.0 mi SE 17.3 mph 21.9 mph N/A   Partly Cloudy
11:53 AM 91.0 °F 100.4 °F 73.9 °F 57% 30.01 in 10.0 mi ESE 17.3 mph - N/A   Partly Cloudy
12:53 PM 91.9 °F 100.7 °F 73.0 °F 54% 30.01 in 10.0 mi SE 16.1 mph 24.2 mph N/A   Mostly Cloudy
1:53 PM 91.9 °F 101.3 °F 73.9 °F 55% 29.99 in 10.0 mi East 16.1 mph 23.0 mph N/A   Scattered Clouds
2:53 PM 91.9 °F 100.7 °F 73.0 °F 54% 29.99 in 10.0 mi ESE 12.7 mph 20.7 mph N/A   Scattered Clouds
3:53 PM 91.9 °F 98.4 °F 71.1 °F 50% 29.97 in 10.0 mi ESE 15.0 mph 20.7 mph N/A   Scattered Clouds
4:53 PM 91.9 °F 99.5 °F 72.0 °F 52% 29.97 in 10.0 mi SE 13.8 mph - N/A   Scattered Clouds
5:53 PM 89.1 °F 96.0 °F 72.0 °F 57% 29.96 in 10.0 mi ESE 13.8 mph 23.0 mph N/A   Partly Cloudy
6:53 PM 87.1 °F 94.5 °F 73.0 °F 63% 29.97 in 10.0 mi East 16.1 mph 26.5 mph N/A   Partly Cloudy
7:53 PM 82.9 °F 85.4 °F 66.9 °F 58% 29.98 in 10.0 mi ESE 12.7 mph - N/A   Clear
8:53 PM 82.9 °F 87.0 °F 70.0 °F 65% 29.99 in 10.0 mi East 6.9 mph - N/A   Clear
9:53 PM 82.9 °F 88.0 °F 72.0 °F 69% 30.02 in 10.0 mi East 5.8 mph - N/A   Clear
10:53 PM 82.0 °F 87.4 °F 73.0 °F 74% 30.03 in 10.0 mi ENE 3.5 mph - N/A   Clear
11:53 PM 82.9 °F 89.4 °F 73.9 °F 74% 30.02 in 10.0 mi East 6.9 mph - N/A Thunderstorm Clear